Вернуться в каталог

COSMOS 1275 DEB

АктивенPO
NORAD 13809·DEBRIS·🇷🇺 Russia

Запущен Jun 4, 1981 с Plesetsk Cosmodrome

Loading…

Ближайшие Пролёты (ближайшие 24 часа)

TLE

СвежийSource: Space-Track

Эпоха: Sep 14, 2026, 04:38 UTC

1 13809U 81053HD  26257.19372907  .00155641  00000-0  28081-2 0  9991
2 13809  82.7817 254.9468 0011822 154.2298 205.9545 15.49111507289518

Отслеживайте COSMOS 1275 DEB в реальном времени с AllMySat

Download on the App Store